Luxeuil, France

3:55 PM CEST on June 25, 2017 (GMT +0200)
Saint Sauveur Air Base

Weather History for LFSX - March, 2013

Change the Weather History Date:

Friday, March 22, 2013

  Actual Average Record
Temperature  
Mean Temperature 44 °F -  
Max Temperature 57 °F 56 °F 69 °F (2012)
Min Temperature 32 °F 37 °F 21 °F (2009)
Degree Days  
Heating Degree Days 20    
Moisture  
Dew Point 31 °F    
Average Humidity 59    
Maximum Humidity 93    
Minimum Humidity 33    
Precipitation  
Precipitation 0.00 in - - ()
Sea Level Pressure  
Sea Level Pressure 29.80 in    
Wind  
Wind Speed 6 mph ()    
Max Wind Speed 18 mph    
Max Gust Speed -    
Visibility 6.1 miles    
Events      
Averages and records for this station are not official NWS values.
T = Trace of Precipitation, MM = Missing Value Source: Averaged Metar Reports

Daily Weather History Graph

Daily Weather History Graph

Search for Another Location

Airport or City:

Trip Planner

Search our weather history database for the weather conditions in past years. The results will help you decide how hot, cold, wet, or windy it might be!

Date:

Astronomy

Mar. 22, 2013 Rise Set
Actual Time 6:33 AM CET 6:50 PM CET
Civil Twilight 6:02 AM CET 7:21 PM CET
Nautical Twilight 5:26 AM CET 7:57 PM CET
Astronomical Twilight 4:48 AM CET 8:35 PM CET
Moon 1:43 PM CET (3/22) 3:43 AM CET (3/22)
Length of Visible Light 13h 18m
Length of Day
12h 16m
Waxing Gibbous, 75% of the Moon is Illuminated
Mar 22
Waxing Gibbous
Mar 27
Full
Apr 3
Last Quarter
Apr 10
New
Apr 18
First Quarter

Hourly Weather History & Observations

Time (CET) Temp. Windchill Dew Point Humidity Pressure Visibility Wind Dir Wind Speed Gust Speed Precip Events Conditions
12:00 AM 35.6 °F 32.8 °F 30.2 °F 81% 29.95 in 6.2 mi ENE 3.5 mph - N/A   Unknown
12:30 AM 35.6 °F 31.7 °F 30.2 °F 81% 29.95 in 6.2 mi ENE 4.6 mph - N/A   Unknown
1:00 AM 35.6 °F 32.8 °F 30.2 °F 81% 29.95 in 6.2 mi East 3.5 mph - N/A   Unknown
1:30 AM 33.8 °F 30.8 °F 30.2 °F 87% 29.95 in 6.2 mi East 3.5 mph - N/A   Unknown
2:00 AM 35.6 °F 31.7 °F 30.2 °F 81% 29.95 in 6.2 mi ENE 4.6 mph - N/A   Unknown
2:30 AM 35.6 °F 32.8 °F 30.2 °F 81% 29.95 in 6.2 mi ENE 3.5 mph - N/A   Unknown
3:00 AM 33.8 °F 29.6 °F 28.4 °F 81% 29.92 in 6.2 mi ENE 4.6 mph - N/A   Unknown
3:30 AM 33.8 °F - 28.4 °F 81% 29.92 in 6.2 mi ENE 2.3 mph - N/A   Unknown
4:00 AM 32.0 °F - 30.2 °F 93% 29.92 in 4.3 mi ENE 1.2 mph - N/A   Unknown
5:00 AM 33.8 °F - 30.2 °F 87% 29.89 in 4.3 mi Calm Calm - N/A   Unknown
5:30 AM 33.8 °F - 30.2 °F 87% 29.89 in 5.6 mi NE 1.2 mph - N/A   Unknown
6:00 AM 35.6 °F 32.8 °F 30.2 °F 81% 29.89 in 6.2 mi NE 3.5 mph - N/A   Unknown
6:30 AM 33.8 °F - 28.4 °F 81% 29.89 in 5.6 mi Calm Calm - N/A   Unknown
7:00 AM 33.8 °F 30.8 °F 30.2 °F 87% 29.89 in 5.0 mi East 3.5 mph - N/A   Unknown
7:30 AM 37.4 °F 33.8 °F 30.2 °F 75% 29.86 in 6.2 mi East 4.6 mph - N/A   Unknown
8:00 AM 39.2 °F 34.2 °F 32.0 °F 75% 29.86 in 6.2 mi ESE 6.9 mph - N/A   Unknown
8:30 AM 42.8 °F 37.5 °F 32.0 °F 66% 29.86 in 6.2 mi ESE 9.2 mph - N/A   Unknown
9:00 AM 46.4 °F 42.4 °F 33.8 °F 62% 29.86 in 6.2 mi ESE 8.1 mph - N/A   Unknown
9:30 AM 48.2 °F - 32.0 °F 54% 29.83 in 6.2 mi ESE 10.4 mph - N/A   Unknown
10:00 AM 50.0 °F - 32.0 °F 50% 29.83 in 6.2 mi SE 15.0 mph - N/A   Unknown
10:30 AM 50.0 °F - 32.0 °F 50% 29.83 in 6.2 mi SE 17.3 mph - N/A   Unknown
11:00 AM 51.8 °F - 32.0 °F 47% 29.83 in 6.2 mi SE 13.8 mph - N/A   Unknown
11:30 AM 53.6 °F - 32.0 °F 44% 29.80 in 6.2 mi SE 13.8 mph - N/A   Unknown
12:00 PM 55.4 °F - 32.0 °F 41% 29.80 in 6.2 mi SE 16.1 mph - N/A   Unknown
12:30 PM 55.4 °F - 30.2 °F 38% 29.77 in 6.2 mi SE 18.4 mph - N/A   Unknown
1:00 PM 55.4 °F - 32.0 °F 41% 29.77 in 6.2 mi SE 16.1 mph - N/A   Unknown
1:30 PM 55.4 °F - 30.2 °F 38% 29.77 in 6.2 mi SE 17.3 mph - N/A   Unknown
2:00 PM 55.4 °F - 30.2 °F 38% 29.77 in 6.2 mi SE 16.1 mph - N/A   Unknown
2:30 PM 57.2 °F - 32.0 °F 38% 29.74 in 6.2 mi ESE 15.0 mph - N/A   Unknown
3:00 PM 57.2 °F - 28.4 °F 33% 29.74 in 6.2 mi ESE 13.8 mph - N/A   Unknown
3:30 PM 57.2 °F - 32.0 °F 38% 29.71 in 6.2 mi SE 12.7 mph - N/A   Unknown
4:00 PM 55.4 °F - 30.2 °F 38% 29.71 in 6.2 mi SE 12.7 mph - N/A   Unknown
4:30 PM 55.4 °F - 30.2 °F 38% 29.71 in 6.2 mi SE 11.5 mph - N/A   Unknown
5:00 PM 53.6 °F - 32.0 °F 44% 29.71 in 6.2 mi SE 11.5 mph - N/A   Unknown
5:30 PM 53.6 °F - 32.0 °F 44% 29.68 in 6.2 mi SE 10.4 mph - N/A   Unknown
6:00 PM 53.6 °F - 32.0 °F 44% 29.68 in 6.2 mi SE 8.1 mph - N/A   Unknown
6:30 PM 50.0 °F - 30.2 °F 47% 29.68 in 6.2 mi SE 6.9 mph - N/A   Unknown
7:00 PM 50.0 °F - 30.2 °F 47% 29.68 in 6.2 mi ESE 5.8 mph - N/A   Unknown
7:30 PM 50.0 °F - 30.2 °F 47% 29.68 in 6.2 mi East 3.5 mph - N/A   Unknown
8:00 PM 48.2 °F - 28.4 °F 46% 29.68 in 6.2 mi ENE 4.6 mph - N/A   Unknown
8:30 PM 48.2 °F - 30.2 °F 50% 29.68 in 6.2 mi East 2.3 mph - N/A   Unknown
9:00 PM 46.4 °F 44.3 °F 30.2 °F 53% 29.68 in 6.2 mi NE 4.6 mph - N/A   Unknown
10:00 PM 44.6 °F - 32.0 °F 61% 29.68 in 6.2 mi Variable 2.3 mph - N/A   Unknown
10:30 PM 44.6 °F - 32.0 °F 61% 29.68 in 6.2 mi Variable 2.3 mph - N/A   Unknown
11:00 PM 48.2 °F - 32.0 °F 54% 29.68 in 6.2 mi ENE 5.8 mph - N/A   Unknown
11:30 PM 48.2 °F - 32.0 °F 54% 29.71 in 6.2 mi ESE 3.5 mph - N/A   Unknown